Weather in Ubon Ratchathani

Thailand     15°15′17″N   104°52′05″E
temp.,
°C
wind,
m/s
gust,
m/s
humid.,
%
clouds,
%
prec.,
mm/h
press.,
hPa
HPBL,
m
8 march, mon
mon801:00+26ne47670 0.0 1012225
04:00+25ne46730 0.0 1012177
07:00+26ese38537 0.0 1014391
10:00+30se234271 0.0 10161135
13:00+33sse343280 0.0 10121198
16:00+33n543412 0.0 10091067
19:00+28n47479 0.0 1010167
22:00+27ne49460 0.0 1013230
9 march, tue
tue901:00+25nne23600 0.0 101166
04:00+24ne34680 0.0 101298
07:00+25ese48570 0.0 1014330
10:00+31sse45390 0.0 1015967
13:00+36se21300 0.0 10112323
16:00+36n212513 0.0 10082847
19:00+33nne342957 0.0 1009105
22:00+31ese3437100 0.0 1012169
10 march, wed
wed1001:00+28nne465456 0.0 1012208
04:00+26ne356285 0.0 1011266
07:00+26se365676 0.0 1014357
10:00+31sse44400 0.0 10151007
13:00+36e12290 0.0 10102430
16:00+36n332652 0.0 10072854
19:00+34n233045 0.0 100969
22:00+30nne7104225 0.0 1011334
11 march, thu
thu1101:00+26ne586127 0.0 1011318
04:00+25ene466836 0.0 1012180
07:00+26se235519 0.0 1014216
10:00+31se33400 0.0 10151060
13:00+36ne33290 0.0 10112198
16:00+37nne44252 0.0 10082915
19:00+33n123017 0.0 100933
22:00+28ne6125339 0.0 1011450
12 march, fri
fri1201:00+25ene5106420 0.0 1012449
04:00+24ne46732 0.0 1011171
07:00+24ne34761 0.0 1014162
10:00+31ene11410 0.0 1014870
13:00+36nne33260 0.0 10101942
16:00+37nne34190 0.0 10072943
19:00+33nw12240 0.0 100926
22:00+27ne511510 0.0 1011398